[Date Prev][Date Next][Thread Prev][Thread Next] - [Date Index][Thread Index][Author Index]
2 Line ISS Keps 1-15
- Subject: [sarex] 2 Line ISS Keps 1-15
- From: "Dave Larsen Ph.D." <doc@xxxxxxxxxxx>
- Date: Wed, 15 Jan 2003 05:15:36 -0800
ISS
1 25544U 98067A 03015.16833003 .00032339 00000-0 41025-3 0 5837
2 25544 51.6349 68.9031 0005598 36.7963 13.6284 15.59119733237132
----
Via the sarex mailing list at AMSAT.ORG courtesy of AMSAT-NA.
To unsubscribe, send "unsubscribe sarex" to Majordomo@amsat.org
AMSAT Home